Weather History for Oscoda, MI

Change the Weather History Date:

Sunday, February 10, 2013

  Actual Average Record
Temperature  
Mean Temperature 18 °F -  
Max Temperature 32 °F 29 °F 57 °F (2009)
Min Temperature 3 °F 14 °F -5 °F (2011)
Degree Days  
Heating Degree Days 48    
Moisture  
Dew Point 19 °F    
Average Humidity 86    
Maximum Humidity 97    
Minimum Humidity 64    
Precipitation  
Precipitation 0.16 in - - ()
Sea Level Pressure  
Sea Level Pressure 30.02 in    
Wind  
Wind Speed 5 mph (SSE)    
Max Wind Speed 14 mph    
Max Gust Speed 20 mph    
Visibility 7 miles    
Events Fog , Snow    
Averages and records for this station are not official NWS values.
T = Trace of Precipitation, MM = Missing Value Source: NWS Daily Summary

Daily Weather History Graph

Daily Weather History Graph

Search for Another Location

Airport:

Trip Planner

Search our weather history database for the weather conditions in past years. The results will help you decide how hot, cold, wet, or windy it might be!

Date:

Astronomy

Feb. 10, 2013 Rise Set
Actual Time 7:40 AM EST 5:55 PM EST
Civil Twilight 7:10 AM EST 6:26 PM EST
Nautical Twilight 6:35 AM EST 7:00 PM EST
Astronomical Twilight 6:02 AM EST 7:34 PM EST
Moon 7:26 AM EST (2/10) 6:49 PM EST (2/10)
Length of Visible Light 11h 16m
Length of Day
10h 15m
New Moon, 0% of the Moon is Illuminated
Feb 10
New Moon
Feb 17
First Quarter
Feb 25
Full
Mar 4
Last Quarter
Mar 11
New

Hourly Weather History & Observations

Time (EST) Temp. Windchill Dew Point Humidity Pressure Visibility Wind Dir Wind Speed Gust Speed Precip Events Conditions
12:14 AM 9.7 °F -0.1 °F 7.9 °F 92% 30.25 in 7.0 mi South 5.8 mph - N/A   Clear
12:33 AM 12.6 °F 4.8 °F 10.6 °F 92% 30.24 in 7.0 mi South 4.6 mph - N/A   Clear
12:54 AM 17.6 °F 9.3 °F 16.3 °F 95% 30.24 in 10.0 mi South 5.8 mph - N/A   Clear
1:14 AM 18.1 °F 8.9 °F 16.2 °F 92% 30.23 in 10.0 mi South 6.9 mph - N/A   Clear
1:33 AM 19.8 °F 10.8 °F 18.1 °F 93% 30.23 in 10.0 mi South 6.9 mph - N/A   Clear
1:54 AM 20.1 °F 11.3 °F 18.0 °F 91% 30.22 in 10.0 mi South 6.9 mph - N/A   Clear
2:14 AM 19.0 °F 12.3 °F 16.7 °F 91% 30.22 in 10.0 mi South 4.6 mph - N/A   Clear
2:33 AM 18.9 °F 12.1 °F 16.7 °F 91% 30.21 in 10.0 mi South 4.6 mph - N/A   Scattered Clouds
2:54 AM 18.9 °F 13.7 °F 16.9 °F 92% 30.21 in 10.0 mi South 3.5 mph - N/A   Scattered Clouds
3:13 AM 18.5 °F - 16.9 °F 93% 30.20 in 10.0 mi Calm Calm - N/A   Clear
3:33 AM 13.5 °F 5.8 °F 11.8 °F 93% 30.20 in 4.0 mi South 4.6 mph - N/A   Clear
3:54 AM 11.7 °F 5.5 °F 10.2 °F 94% 30.19 in 1.2 mi South 3.5 mph - N/A   Mist
4:13 AM 10.8 °F - 9.1 °F 93% 30.19 in 1.5 mi Calm Calm - N/A   Mist
4:33 AM 10.0 °F 1.8 °F 8.2 °F 92% 30.19 in 1.0 mi South 4.6 mph - N/A   Mist
4:54 AM 11.8 °F 3.9 °F 10.0 °F 92% 30.19 in 4.0 mi SSW 4.6 mph - N/A   Clear
5:13 AM 12.6 °F 6.5 °F 10.8 °F 92% 30.19 in 4.0 mi SSW 3.5 mph - N/A   Clear
5:33 AM 12.6 °F 4.8 °F 10.6 °F 92% 30.20 in 4.0 mi SSW 4.6 mph - N/A   Clear
5:54 AM 12.9 °F - 11.1 °F 93% 30.20 in 2.5 mi Calm Calm - N/A   Clear
6:13 AM 11.1 °F - 8.8 °F 90% 30.19 in 0.5 mi Calm Calm - N/A Fog Light Freezing Fog
6:33 AM 5.4 °F - 2.7 °F 89% 30.19 in 0.2 mi Calm Calm - N/A Fog Light Freezing Fog
6:54 AM 3.7 °F - 0.5 °F 86% 30.19 in 7.0 mi Calm Calm - N/A   Clear
7:13 AM 3.6 °F - 0.5 °F 87% 30.19 in 10.0 mi Calm Calm - N/A   Clear
7:33 AM 4.1 °F - 0.9 °F 86% 30.19 in 10.0 mi Calm Calm - N/A   Scattered Clouds
7:54 AM 3.7 °F - 0.5 °F 86% 30.19 in 10.0 mi Calm Calm - N/A   Overcast
8:13 AM 3.0 °F - -0.4 °F 86% 30.19 in 10.0 mi Calm Calm - N/A   Overcast
8:33 AM 3.4 °F - 0.1 °F 86% 30.18 in 0.2 mi Calm Calm - N/A Fog Light Freezing Fog
8:54 AM 4.8 °F - 1.9 °F 88% 30.18 in 0.2 mi Calm Calm - N/A Fog Light Freezing Fog
9:13 AM 5.5 °F - 2.5 °F 87% 30.16 in 0.2 mi Calm Calm - N/A Fog Light Freezing Fog
9:34 AM 8.6 °F - 6.1 °F 89% 30.15 in 0.2 mi Calm Calm - N/A Fog Light Freezing Fog
9:54 AM 11.1 °F - 8.8 °F 90% 30.14 in 0.2 mi Calm Calm - N/A Fog Light Freezing Fog
10:13 AM 16.2 °F - 14.5 °F 93% 30.13 in 5.0 mi Calm Calm - N/A   Clear
10:34 AM 25.2 °F 19.5 °F 24.3 °F 96% 30.11 in 7.0 mi SE 4.6 mph - N/A   Scattered Clouds
10:54 AM 25.3 °F 19.7 °F 24.3 °F 96% 30.09 in 10.0 mi SE 4.6 mph - N/A   Clear
11:13 AM 26.4 °F 18.9 °F 25.0 °F 94% 30.07 in 7.0 mi ESE 6.9 mph - N/A   Clear
11:34 AM 27.0 °F 18.7 °F 23.4 °F 86% 30.08 in 10.0 mi ESE 8.1 mph - N/A   Clear
11:54 AM 29.3 °F 21.5 °F 22.5 °F 76% 30.10 in 10.0 mi SSE 8.1 mph - N/A   Mostly Cloudy
12:13 PM 30.6 °F 23.1 °F 21.0 °F 68% 30.08 in 10.0 mi SSE 8.1 mph - N/A   Scattered Clouds
12:34 PM 30.7 °F 22.0 °F 21.6 °F 69% 30.07 in 10.0 mi SSE 10.4 mph - N/A   Mostly Cloudy
12:54 PM 31.8 °F 22.8 °F 21.4 °F 65% 30.06 in 10.0 mi South 11.5 mph - N/A   Overcast
1:13 PM 31.8 °F 24.6 °F 21.6 °F 66% 30.03 in 10.0 mi South 8.1 mph - N/A   Mostly Cloudy
1:34 PM 31.6 °F 22.6 °F 21.7 °F 67% 30.02 in 10.0 mi South 11.5 mph - N/A   Scattered Clouds
1:53 PM 32.0 °F 25.6 °F 21.2 °F 64% 29.99 in 10.0 mi South 6.9 mph - N/A   Scattered Clouds
2:13 PM 32.2 °F 27.7 °F 22.1 °F 66% 29.98 in 10.0 mi SE 4.6 mph - N/A   Mostly Cloudy
2:34 PM 32.0 °F 27.5 °F 22.3 °F 67% 29.98 in 10.0 mi SE 4.6 mph - N/A   Scattered Clouds
2:53 PM 32.0 °F 26.4 °F 23.4 °F 70% 29.96 in 10.0 mi ESE 5.8 mph - N/A   Mostly Cloudy
3:13 PM 31.5 °F 25.8 °F 24.3 °F 75% 29.96 in 5.0 mi ESE 5.8 mph - N/A   Haze
3:34 PM 31.8 °F 25.4 °F 25.9 °F 79% 29.95 in 10.0 mi ESE 6.9 mph - N/A   Overcast
3:53 PM 31.8 °F 23.9 °F 27.1 °F 83% 29.94 in 10.0 mi SE 9.2 mph 16.1 mph N/A   Overcast
4:13 PM 31.5 °F 23.5 °F 27.0 °F 83% 29.94 in 10.0 mi SE 9.2 mph - N/A   Overcast
4:34 PM 31.8 °F 25.4 °F 26.6 °F 81% 29.92 in 10.0 mi SE 6.9 mph - N/A   Overcast
4:53 PM 31.6 °F 22.6 °F 25.5 °F 78% 29.90 in 10.0 mi SE 11.5 mph - N/A   Overcast
5:13 PM 31.1 °F 21.4 °F 25.5 °F 80% 29.90 in 10.0 mi SE 12.7 mph 19.6 mph N/A   Overcast
5:34 PM 31.1 °F 23.1 °F 25.0 °F 78% 29.88 in 10.0 mi SE 9.2 mph 16.1 mph N/A   Overcast
5:53 PM 31.1 °F 23.7 °F 25.5 °F 80% 29.86 in 7.0 mi ESE 8.1 mph - N/A   Overcast
6:13 PM 31.3 °F 23.3 °F 26.6 °F 83% 29.85 in 7.0 mi ESE 9.2 mph - N/A   Overcast
6:34 PM 31.6 °F 24.4 °F 27.5 °F 85% 29.84 in 5.0 mi ESE 8.1 mph - 0.01 in   Overcast
6:53 PM 31.6 °F 25.1 °F 27.9 °F 86% 29.84 in 7.0 mi SE 6.9 mph - 0.01 in   Overcast
7:13 PM 31.8 °F 23.9 °F 28.0 °F 86% 29.83 in 7.0 mi SE 9.2 mph - 0.01 in   Overcast
7:34 PM 31.8 °F 24.6 °F 28.0 °F 86% 29.81 in 10.0 mi SE 8.1 mph - 0.01 in   Overcast
7:53 PM 32.0 °F 26.4 °F 28.4 °F 87% 29.80 in 7.0 mi SSE 5.8 mph - 0.01 in   Overcast
8:14 PM 32.0 °F 26.4 °F 28.8 °F 88% 29.78 in 3.0 mi SE 5.8 mph - 0.03 in   Overcast
8:34 PM 32.0 °F 23.6 °F 29.1 °F 89% 29.78 in 7.0 mi SSE 10.4 mph - 0.04 in   Overcast
8:53 PM 32.4 °F 24.6 °F 29.1 °F 88% 29.75 in 7.0 mi SSE 9.2 mph 16.1 mph 0.04 in   Overcast
9:14 PM 32.5 °F 23.7 °F 29.8 °F 90% 29.75 in 7.0 mi SSE 11.5 mph - N/A   Overcast
9:34 PM 32.9 °F 24.7 °F 29.7 °F 88% 29.72 in 7.0 mi SSE 10.4 mph 18.4 mph 0.01 in   Overcast
9:53 PM 32.9 °F 24.1 °F 29.7 °F 88% 29.70 in 7.0 mi SSE 11.5 mph 19.6 mph 0.01 in   Overcast
10:14 PM 32.9 °F 24.1 °F 30.0 °F 89% 29.70 in 5.0 mi SSE 11.5 mph 18.4 mph 0.02 in   Overcast
10:34 PM 32.7 °F 23.0 °F 30.4 °F 91% 29.68 in 3.0 mi SSE 13.8 mph 18.4 mph 0.07 in Snow Light Snow
10:53 PM 32.5 °F 23.7 °F 30.6 °F 92% 29.68 in 3.0 mi SSE 11.5 mph 17.3 mph 0.09 in   Overcast
11:14 PM 32.4 °F 23.5 °F 31.1 °F 95% 29.65 in 3.0 mi SE 11.5 mph 16.1 mph N/A   Overcast
11:34 PM 32.4 °F 24.0 °F 31.6 °F 97% 29.64 in 4.0 mi SSE 10.4 mph - N/A   Overcast
11:53 PM 32.4 °F 26.0 °F 31.6 °F 97% 29.63 in 4.0 mi SSE 6.9 mph - N/A   Overcast